Location: Audrecelles
(50.8240°N, 1.5923°E)
Time: 03:21:22
(UTC+00:00)

Cosmos 44 - Pass Details

Date: 13 October 2025
Orbit: 576 x 774 km, 65.1° (Epoch: 13 November)

Event Time Altitude Azimuth Distance (km) Brightness Sun altitude
Exits shadow 04:47:17 - 322° (NW) 2,693 6.0 -14.4°
Reaches altitude 10° 04:48:52 10° 331° (NNW) 2,163 5.6 -14.1°
Maximum altitude 04:53:10 29° 31° (NNE) 1,325 5.1 -13.5°
Drops below altitude 10° 04:57:38 10° 91° (E) 2,259 7.4 -12.8°
Sets 05:00:22 0° 102° (ESE) 3,206 8.4 -12.3°
